TimeMDT,TemperatureF,Dew PointF,Humidity,Sea Level PressureIn,VisibilityMPH,Wind Direction,Wind SpeedMPH,Gust SpeedMPH,PrecipitationIn,Events,Conditions,WindDirDegrees,DateUTC
12:52 AM,53.1,35.1,50,29.97,10.0,ESE,3.5,-,N/A,,Clear,120,2011-10-01 06:52:00
1:52 AM,51.1,36.0,56,29.96,10.0,ESE,3.5,-,N/A,,Clear,120,2011-10-01 07:52:00
2:52 AM,50.0,35.6,58,30.00,10.0,Calm,Calm,-,N/A,,Clear,0,2011-10-01 08:52:00
3:52 AM,46.9,36.0,66,29.96,10.0,East,3.5,-,N/A,,Clear,90,2011-10-01 09:52:00
4:52 AM,45.0,36.0,71,29.97,10.0,Calm,Calm,-,N/A,,Clear,0,2011-10-01 10:52:00
5:52 AM,44.6,35.6,71,30.01,10.0,Calm,Calm,-,N/A,,Clear,0,2011-10-01 11:52:00
6:52 AM,46.0,36.0,68,30.00,10.0,Calm,Calm,-,N/A,,Clear,0,2011-10-01 12:52:00
7:52 AM,55.4,39.2,54,30.04,10.0,Calm,Calm,-,N/A,,Clear,0,2011-10-01 13:52:00
8:52 AM,64.9,39.0,39,30.01,10.0,Calm,Calm,-,N/A,,Clear,0,2011-10-01 14:52:00
9:52 AM,71.1,39.0,31,30.01,10.0,Calm,Calm,-,N/A,,Clear,0,2011-10-01 15:52:00
10:52 AM,77.0,37.0,24,30.01,10.0,South,4.6,-,N/A,,Clear,190,2011-10-01 16:52:00
11:52 AM,82.9,36.0,19,29.99,10.0,SE,8.1,-,N/A,,Clear,140,2011-10-01 17:52:00
12:52 PM,87.1,35.1,16,29.97,10.0,SSE,9.2,-,N/A,,Clear,150,2011-10-01 18:52:00
1:52 PM,89.1,30.9,12,29.95,10.0,SE,9.2,-,N/A,,Clear,140,2011-10-01 19:52:00
2:52 PM,90.0,30.9,12,29.94,10.0,ESE,11.5,-,N/A,,Clear,120,2011-10-01 20:52:00
3:52 PM,90.0,32.0,13,29.94,10.0,SE,12.7,-,N/A,,Clear,130,2011-10-01 21:52:00
4:52 PM,88.0,33.1,14,29.94,10.0,SE,11.5,-,N/A,,Clear,140,2011-10-01 22:52:00
5:52 PM,81.0,36.0,20,29.96,10.0,SE,6.9,-,N/A,,Clear,140,2011-10-01 23:52:00
6:52 PM,73.0,35.1,25,29.97,10.0,ESE,3.5,-,N/A,,Clear,110,2011-10-02 00:52:00
7:52 PM,70.0,34.0,27,29.97,10.0,East,4.6,-,N/A,,Clear,100,2011-10-02 01:52:00
8:52 PM,57.0,36.0,45,29.98,10.0,WSW,3.5,-,N/A,,Clear,250,2011-10-02 02:52:00
9:52 PM,66.0,34.0,30,29.95,10.0,Calm,Calm,-,N/A,,Clear,0,2011-10-02 03:52:00
10:52 PM,64.0,34.0,33,29.96,10.0,Calm,Calm,-,N/A,,Clear,0,2011-10-02 04:52:00
11:52 PM,61.0,35.1,38,29.95,10.0,SE,4.6,-,N/A,,Clear,130,2011-10-02 05:52:00